Regional Weather Roundup
Issued by NWS New Orleans/Baton Rouge, LA

Home | Current Version | Previous Version | Graphics & Text | Print | Product List | Glossary On
Versions: 1 2 3 4 5 6 7 8 9 10 11 12 13 14 15 16 17 18 19 20 21 22 23 24 25 26 27 28 29 30 31 32 33 34 35 36 37 38 39 40 41 42 43 44 45 46 47 48 49 50
129
ASUS44 KLIX 160910
RWRLIX
NEW ORLEANS REGIONAL WEATHER ROUNDUP
NATIONAL WEATHER SERVICE NEW ORLEANS LA
400 AM CDT WED APR 16 2014

NOTE: "FAIR" INDICATES FEW OR NO CLOUDS BELOW 12,000 FEET WITH NO
      SIGNIFICANT WEATHER AND/OR OBSTRUCTIONS TO VISIBILITY.
      SKY/WX - SKY CONDITION AND SIGNIFICANT WEATHER.
      TMP - AIR TEMPERATURE.     DP    - DEWPOINT TEMPERATURE.
      RH  - RELATIVE HUMIDITY.   PRES  - PRESSURE.
      HI  - HEAT INDEX.          WCI   - WIND CHILL INDEX.

*  THESE STATIONS ARE NOT NWS OR FAA STATIONS AND ARE NOT UNDER
   NWS QUALITY CONTROL.

LAZ038-040-048-061>063-065>067-069-161000-
SOUTHEAST LOUISIANA

CITY           SKY/WX    TMP DP  RH WIND       PRES   REMARKS
N.O. AUDUBON     N/A     48  35  61 MISG        N/A
N.O. INTL ARPT CLEAR     49  34  56 NE15      30.17S
N.O. LAKEFRONT CLEAR     50  37  61 NE23      30.18S
N.O. DOWNTOWN*   N/A     48  30  49 NE7       30.17S
SLIDELL        CLEAR     39  35  86 N5        30.18S
BATON ROUGE    CLEAR     40  33  76 NE3       30.19S
BOOTHVILLE     CLEAR     54  36  50 NE12G20   30.15S
BELLE CHASSE   CLEAR     46  33  60 NE7       30.16S
BOGALUSA*        N/A     37  34  87 CALM      30.21S
GALLIANO*      SUNNY     50  37  60 N12G17    30.16S
NEW ROADS*       N/A     41  32  70 NE7       30.19F
GONZALES*        N/A     42  34  75 CALM      30.18S
HAMMOND*       CLEAR     41  32  70 NE5       30.20S
HOUMA*           N/A     42  36  78 N3        30.17R
PORT FOURCHON* MOSUNNY   52  41  66 N12       30.17S

$$

MSZ070-080>082-161000-
SOUTHERN MISSISSIPPI

CITY           SKY/WX    TMP DP  RH WIND       PRES   REMARKS
MCCOMB         CLEAR     39  32  76 NE8       30.18S WCI  33
GULFPORT       CLEAR     43  34  70 N5        30.17R
BILOXI         CLEAR     42  35  75 N6        30.17R
PASCAGOULA     CLEAR     40  35  83 CALM      30.17R

$$

COASTAL OBSERVATIONS
LAKE AND NEARSHORE STATIONS

STATION/POSITION TIME  TEMP    WIND        PRES    WAVE
                       AIR SEA DIR/SP/G            HT/PER
                 (UTC) (F)     (DEG/KT/KT) (MB)    (FT/S)
PASCAGOULA       0900   44      10/  7/ 11 1020.7
WAVELAND YACHT   0900   45 62   20/ 10/ 12 1021.1
GRAND ISLE       0900   53 63   40/ 12/ 22 1021.0
SOUTHWEST PASS   0900   57 58   40/ 13/ 15 1020.7
NEW CANAL        0900   51 63   50/ 17/ 20 1021.8
SHELL BEACH      0900   52 61   50/ 21/ 24 1021.1

OFFSHORE STATIONS

STATION/POSITION TIME  TEMP    WIND        PRES    WAVE
                       AIR SEA DIR/SP/G            HT/PER
                 (UTC) (F)     (DEG/KT/KT) (MB)    (FT/S)
64 S DAUPHIN ISL 0819   55 68   40/ 21/ 29 1020.1

$$




USA.gov is the U.S. government's official web portal to all federal, state and local government web resources and services.